Terminal Aerodrome Forecast
Issued by NWS Memphis, TN

Home | Current Version | Previous Version | Text Only | Print | Product List | Glossary On
Versions: 1 2 3 4 5 6 7 8 9 10 11 12 13 14 15 16 17 18
519
FTUS44 KMEG 250057 AAA
TAFMKL
TAF AMD
KMKL 250057Z 2501/2524 17006KT 6SM -TSRA FEW050CB BKN090CB
     FM250130 16003KT P6SM SCT040 SCT250
      TEMPO 2509/2513 3SM BR
     FM251500 21006KT P6SM SCT040=

USA.gov is the U.S. government's official web portal to all federal, state and local government web resources and services.